SAS1778 EKVG-EKCH

Flight info

Callsign SAS1778
Flight time N/A
Altitude 37000
Route ODEVA DCT RIXUN/N0443F370 DCT PEPIN DCT TESPI
Aircraft A320/M-SDE3FGHIRWY/LB1

Departure

Time 2026-05-06 06:50
Airport Vágar Airport (EKVG)

Arrival

Time N/A
Airport Copenhagen Kastrup Airport (EKCH)
Time Latitude Longitude Altitude Speed Heading
2026-05-06 06:46 62.06497 -7.28150 291 ft 11 kts 202°
2026-05-06 06:46 62.06450 -7.28097 290 ft 10 kts 112°
2026-05-06 06:47 62.06414 -7.27940 295 ft 13 kts 118°
2026-05-06 06:47 62.06366 -7.27747 297 ft 18 kts 118°
2026-05-06 06:47 62.06294 -7.27458 291 ft 26 kts 117°
2026-05-06 06:47 62.06230 -7.27208 280 ft 31 kts 118°
2026-05-06 06:48 62.06123 -7.26778 270 ft 32 kts 117°
2026-05-06 06:48 62.06036 -7.26424 256 ft 24 kts 118°
2026-05-06 06:48 62.05966 -7.26146 246 ft 17 kts 118°
2026-05-06 06:48 62.05952 -7.26017 245 ft 6 kts 108°
2026-05-06 06:49 62.05941 -7.26036 245 ft 3 kts 258°
2026-05-06 06:49 62.05948 -7.26075 244 ft 0 kts 297°
2026-05-06 06:49 62.05949 -7.26075 244 ft 0 kts 297°
2026-05-06 06:49 62.06048 -7.26470 259 ft 73 kts 298°
2026-05-06 06:50 62.06413 -7.27929 300 ft 147 kts 298°
2026-05-06 06:50 62.06954 -7.30008 882 ft 164 kts 300°
2026-05-06 06:50 62.07488 -7.32236 1831 ft 176 kts 294°
2026-05-06 06:50 62.07912 -7.34927 2034 ft 208 kts 290°
2026-05-06 06:51 62.08378 -7.38072 2458 ft 232 kts 289°
2026-05-06 06:51 62.08849 -7.41349 3523 ft 227 kts 289°
2026-05-06 06:51 62.09308 -7.44583 4533 ft 229 kts 288°
2026-05-06 06:51 62.09568 -7.48002 5394 ft 239 kts 275°
2026-05-06 06:52 62.09435 -7.51595 6277 ft 247 kts 261°
2026-05-06 06:52 62.08900 -7.55106 7222 ft 252 kts 248°
2026-05-06 06:52 62.07959 -7.58316 8105 ft 259 kts 232°
2026-05-06 06:52 62.06638 -7.60970 9019 ft 264 kts 217°
2026-05-06 06:53 62.05017 -7.62829 9944 ft 267 kts 201°
2026-05-06 06:53 62.03209 -7.63827 10734 ft 271 kts 187°
2026-05-06 06:53 62.01312 -7.63753 11469 ft 276 kts 169°
2026-05-06 06:53 61.99495 -7.62580 12216 ft 280 kts 155°
2026-05-06 06:54 61.97842 -7.60359 13009 ft 283 kts 139°
2026-05-06 06:54 61.96513 -7.57266 13786 ft 285 kts 123°
2026-05-06 06:54 61.95624 -7.53497 14480 ft 287 kts 106°
2026-05-06 06:54 61.95242 -7.49319 15108 ft 292 kts 94°
2026-05-06 06:55 61.95020 -7.44874 15311 ft 314 kts 94°
2026-05-06 06:55 61.94782 -7.40082 15441 ft 337 kts 94°
2026-05-06 06:55 61.94524 -7.34985 15635 ft 356 kts 95°
2026-05-06 06:55 61.94248 -7.29684 16106 ft 365 kts 95°
2026-05-06 06:56 61.93958 -7.24268 16667 ft 372 kts 95°
2026-05-06 06:56 61.93660 -7.18768 17244 ft 378 kts 95°
2026-05-06 06:56 61.93356 -7.13223 18015 ft 378 kts 96°
2026-05-06 06:56 61.93050 -7.07649 18636 ft 382 kts 96°
2026-05-06 06:57 61.92740 -7.02007 19151 ft 388 kts 96°
2026-05-06 06:57 61.92423 -6.96270 19664 ft 394 kts 96°
2026-05-06 06:57 61.92100 -6.90456 20171 ft 400 kts 96°
2026-05-06 06:57 61.91771 -6.84552 20669 ft 406 kts 96°
2026-05-06 06:58 61.91434 -6.78553 21152 ft 412 kts 96°
2026-05-06 06:58 61.91090 -6.72477 21634 ft 418 kts 96°
2026-05-06 06:58 61.90734 -6.66314 22118 ft 424 kts 97°
2026-05-06 06:58 61.90109 -6.60162 22578 ft 430 kts 108°
2026-05-06 06:59 61.88977 -6.54291 23059 ft 433 kts 118°
2026-05-06 06:59 61.87629 -6.48531 23540 ft 439 kts 118°
2026-05-06 06:59 61.86272 -6.42694 23973 ft 443 kts 118°
2026-05-06 06:59 61.84933 -6.36913 24497 ft 443 kts 117°
2026-05-06 07:00 61.83573 -6.31051 24988 ft 445 kts 117°
2026-05-06 07:00 61.82200 -6.25156 25447 ft 447 kts 117°
2026-05-06 07:00 61.80796 -6.19163 25897 ft 450 kts 118°
2026-05-06 07:00 61.79412 -6.13304 26330 ft 453 kts 118°
2026-05-06 07:01 61.78000 -6.07342 26665 ft 457 kts 118°
2026-05-06 07:01 61.76563 -6.01286 26907 ft 464 kts 118°
2026-05-06 07:01 61.75106 -5.95166 27262 ft 468 kts 118°
2026-05-06 07:01 61.73639 -5.89014 27668 ft 471 kts 118°
2026-05-06 07:02 61.72164 -5.82842 28089 ft 473 kts 118°
2026-05-06 07:02 61.70678 -5.76639 28506 ft 475 kts 118°
2026-05-06 07:02 61.69184 -5.70412 28919 ft 477 kts 118°
2026-05-06 07:02 61.67685 -5.64172 29357 ft 479 kts 118°
2026-05-06 07:03 61.66177 -5.57914 29804 ft 480 kts 118°
2026-05-06 07:03 61.64662 -5.51652 30195 ft 482 kts 118°
2026-05-06 07:03 61.63134 -5.45362 30511 ft 484 kts 118°
2026-05-06 07:03 61.61598 -5.39054 30837 ft 486 kts 118°
2026-05-06 07:04 61.60050 -5.32727 31157 ft 488 kts 118°
2026-05-06 07:04 61.58495 -5.26390 31482 ft 489 kts 118°
2026-05-06 07:04 61.56938 -5.20048 31923 ft 488 kts 118°
2026-05-06 07:04 61.55385 -5.13741 32377 ft 487 kts 118°
2026-05-06 07:05 61.53826 -5.07448 32819 ft 485 kts 118°
2026-05-06 07:05 61.52267 -5.01176 33260 ft 484 kts 118°
2026-05-06 07:05 61.50712 -4.94933 33710 ft 483 kts 118°
2026-05-06 07:05 61.49157 -4.88693 34148 ft 482 kts 118°
2026-05-06 07:06 61.47609 -4.82478 34521 ft 482 kts 118°
2026-05-06 07:06 61.46058 -4.76269 34871 ft 481 kts 119°
2026-05-06 07:06 61.44505 -4.70088 35208 ft 480 kts 119°
2026-05-06 07:06 61.42947 -4.63918 35541 ft 480 kts 119°
2026-05-06 07:07 61.41387 -4.57758 35868 ft 479 kts 119°
2026-05-06 07:07 61.39829 -4.51622 36187 ft 479 kts 119°
2026-05-06 07:07 61.38266 -4.45489 36496 ft 478 kts 119°
2026-05-06 07:07 61.36706 -4.39371 36808 ft 478 kts 119°
2026-05-06 07:08 61.35145 -4.33250 36999 ft 478 kts 119°
2026-05-06 07:08 61.32019 -4.21037 37008 ft 477 kts 119°
2026-05-06 07:09 61.28878 -4.08859 37027 ft 477 kts 119°
2026-05-06 07:09 61.25741 -3.96796 37038 ft 479 kts 120°
2026-05-06 07:10 61.22561 -3.84632 37033 ft 480 kts 120°
2026-05-06 07:10 61.19371 -3.72471 37032 ft 480 kts 120°
2026-05-06 07:11 61.16175 -3.60333 37037 ft 480 kts 120°
2026-05-06 07:11 61.12966 -3.48216 37089 ft 478 kts 120°
2026-05-06 07:12 61.09752 -3.36175 37035 ft 479 kts 120°
2026-05-06 07:12 61.06520 -3.24129 37031 ft 479 kts 120°
2026-05-06 07:13 61.03280 -3.12094 37036 ft 480 kts 120°
2026-05-06 07:13 61.00015 -3.00106 37016 ft 479 kts 122°
2026-05-06 07:14 60.96523 -2.88396 37021 ft 479 kts 125°
2026-05-06 07:14 60.92831 -2.76976 37032 ft 479 kts 126°
2026-05-06 07:15 60.89124 -2.65579 37042 ft 480 kts 125°
2026-05-06 07:15 60.85465 -2.54123 37043 ft 480 kts 125°
2026-05-06 07:16 60.81816 -2.42656 37047 ft 480 kts 125°
2026-05-06 07:16 60.78150 -2.31229 37053 ft 480 kts 125°
2026-05-06 07:17 60.74472 -2.19829 37057 ft 480 kts 125°
2026-05-06 07:17 60.70781 -2.08462 37039 ft 480 kts 126°
2026-05-06 07:18 60.67071 -1.97110 37054 ft 481 kts 126°
2026-05-06 07:18 60.63353 -1.85790 37051 ft 481 kts 126°
2026-05-06 07:19 60.59623 -1.74485 37055 ft 481 kts 126°
2026-05-06 07:19 60.55884 -1.63210 37055 ft 481 kts 126°
2026-05-06 07:20 60.52141 -1.51961 37054 ft 481 kts 126°
2026-05-06 07:20 60.48389 -1.40734 37062 ft 481 kts 127°
2026-05-06 07:21 60.44626 -1.29527 37025 ft 481 kts 127°
2026-05-06 07:21 60.40854 -1.18373 37043 ft 480 kts 127°
2026-05-06 07:22 60.37100 -1.07307 37070 ft 480 kts 127°
2026-05-06 07:22 60.33313 -0.96199 37073 ft 480 kts 127°
2026-05-06 07:23 60.29516 -0.85123 37075 ft 480 kts 127°
2026-05-06 07:23 60.25718 -0.74086 37074 ft 480 kts 128°
2026-05-06 07:24 60.21900 -0.63067 37071 ft 479 kts 128°
2026-05-06 07:24 60.18083 -0.52081 37071 ft 479 kts 128°
2026-05-06 07:25 60.14258 -0.41109 37056 ft 479 kts 128°
2026-05-06 07:25 60.10423 -0.30177 37073 ft 479 kts 128°
2026-05-06 07:26 60.06585 -0.19285 37079 ft 479 kts 128°
2026-05-06 07:26 60.02730 -0.08412 37089 ft 479 kts 128°
2026-05-06 07:27 59.98885 0.02441 37093 ft 479 kts 127°
2026-05-06 07:27 59.95266 0.13622 37080 ft 480 kts 124°
2026-05-06 07:28 59.91842 0.24969 37082 ft 480 kts 124°
2026-05-06 07:28 59.86626 0.41970 37070 ft 480 kts 125°
2026-05-06 07:29 59.83069 0.53199 37074 ft 479 kts 125°
2026-05-06 07:29 59.79501 0.64384 37079 ft 479 kts 125°
2026-05-06 07:30 59.75932 0.75566 37090 ft 479 kts 126°
2026-05-06 07:30 59.72369 0.86726 37087 ft 479 kts 126°
2026-05-06 07:31 59.68799 0.97862 37092 ft 479 kts 126°
2026-05-06 07:31 59.65218 1.08965 37093 ft 478 kts 126°
2026-05-06 07:32 59.61629 1.20031 37094 ft 478 kts 126°
2026-05-06 07:32 59.58027 1.31064 37051 ft 478 kts 126°
2026-05-06 07:33 59.54413 1.42065 37062 ft 478 kts 127°
2026-05-06 07:33 59.50793 1.53060 37072 ft 479 kts 127°
2026-05-06 07:34 59.47163 1.64053 37075 ft 479 kts 127°
2026-05-06 07:34 59.43526 1.75016 37080 ft 479 kts 127°
2026-05-06 07:35 59.39877 1.85974 37089 ft 479 kts 127°
2026-05-06 07:35 59.36234 1.96817 37094 ft 480 kts 127°
2026-05-06 07:36 59.32555 2.07734 37087 ft 480 kts 127°
2026-05-06 07:36 59.28874 2.18621 37045 ft 479 kts 127°
2026-05-06 07:37 59.25808 2.27647 37076 ft 479 kts 127°
2026-05-06 07:37 59.22111 2.38461 37077 ft 478 kts 128°
2026-05-06 07:38 59.18416 2.49234 37077 ft 478 kts 128°
2026-05-06 07:38 59.14716 2.59981 37068 ft 477 kts 128°
2026-05-06 07:39 59.11019 2.70684 37072 ft 476 kts 128°
2026-05-06 07:39 59.07324 2.81360 37087 ft 475 kts 128°
2026-05-06 07:40 59.03612 2.91983 37088 ft 475 kts 128°
2026-05-06 07:40 58.99883 3.02583 37086 ft 475 kts 128°
2026-05-06 07:41 58.96160 3.13153 37084 ft 475 kts 128°
2026-05-06 07:41 58.92427 3.23699 37090 ft 474 kts 129°
2026-05-06 07:42 58.88695 3.34212 37099 ft 474 kts 129°
2026-05-06 07:42 58.84967 3.44686 37098 ft 473 kts 129°
2026-05-06 07:43 58.81227 3.55107 37094 ft 472 kts 129°
2026-05-06 07:43 58.77482 3.65493 37092 ft 472 kts 129°
2026-05-06 07:44 58.73731 3.75864 37092 ft 472 kts 129°
2026-05-06 07:44 58.69977 3.86214 37084 ft 471 kts 130°
2026-05-06 07:45 58.66210 3.96530 37088 ft 471 kts 130°
2026-05-06 07:45 58.62434 4.06828 37091 ft 471 kts 130°
2026-05-06 07:46 58.58652 4.17096 37090 ft 471 kts 130°
2026-05-06 07:46 58.54867 4.27343 37091 ft 471 kts 130°
2026-05-06 07:47 58.51069 4.37569 37077 ft 471 kts 130°
2026-05-06 07:47 58.47294 4.47695 37080 ft 471 kts 130°
2026-05-06 07:48 58.43465 4.57936 37076 ft 471 kts 130°
2026-05-06 07:48 58.39674 4.68017 37076 ft 471 kts 130°
2026-05-06 07:49 58.35845 4.78126 37065 ft 470 kts 130°
2026-05-06 07:49 58.32016 4.88216 37072 ft 470 kts 130°
2026-05-06 07:50 58.28186 4.98286 37062 ft 470 kts 131°
2026-05-06 07:50 58.24350 5.08324 37076 ft 469 kts 131°
2026-05-06 07:51 58.20506 5.18334 37074 ft 469 kts 131°
2026-05-06 07:51 58.16659 5.28314 37073 ft 468 kts 131°
2026-05-06 07:52 58.12804 5.38265 37074 ft 468 kts 131°
2026-05-06 07:52 58.08938 5.48186 37069 ft 468 kts 131°
2026-05-06 07:53 58.05070 5.58074 37049 ft 468 kts 131°
2026-05-06 07:53 58.01226 5.67880 37063 ft 468 kts 131°
2026-05-06 07:54 57.97354 5.77721 37066 ft 467 kts 131°
2026-05-06 07:54 57.93481 5.87522 37068 ft 466 kts 131°
2026-05-06 07:55 57.89597 5.97298 37067 ft 466 kts 131°
2026-05-06 07:55 57.85716 6.07049 37065 ft 466 kts 131°
2026-05-06 07:56 57.81826 6.16784 37052 ft 466 kts 132°
2026-05-06 07:56 57.77924 6.26485 37060 ft 466 kts 132°
2026-05-06 07:57 57.74018 6.36154 37037 ft 465 kts 132°
2026-05-06 07:57 57.70106 6.45803 37053 ft 465 kts 132°
2026-05-06 07:58 57.66196 6.55411 37051 ft 464 kts 132°
2026-05-06 07:58 57.62286 6.64992 37041 ft 464 kts 133°
2026-05-06 07:59 57.58367 6.74546 37046 ft 464 kts 133°
2026-05-06 07:59 57.54439 6.84071 37053 ft 464 kts 133°
2026-05-06 08:00 57.50506 6.93576 37057 ft 463 kts 133°
2026-05-06 08:00 57.46575 7.03060 37049 ft 463 kts 133°
2026-05-06 08:01 57.42641 7.12518 37033 ft 462 kts 133°
2026-05-06 08:01 57.38702 7.21941 37024 ft 462 kts 133°
2026-05-06 08:02 57.34762 7.31323 37042 ft 461 kts 133°
2026-05-06 08:02 57.30818 7.40669 37041 ft 460 kts 133°
2026-05-06 08:03 57.26866 7.49999 37042 ft 460 kts 133°
2026-05-06 08:03 57.22913 7.59295 37042 ft 460 kts 133°
2026-05-06 08:04 57.18954 7.68577 37038 ft 460 kts 134°
2026-05-06 08:04 57.14988 7.77833 37028 ft 460 kts 134°
2026-05-06 08:05 57.11017 7.87040 37026 ft 459 kts 134°
2026-05-06 08:05 57.07051 7.96219 37038 ft 458 kts 134°
2026-05-06 08:06 57.03092 8.05361 37035 ft 457 kts 134°
2026-05-06 08:06 56.99131 8.14476 37029 ft 457 kts 134°
2026-05-06 08:07 56.95172 8.23574 37028 ft 456 kts 134°
2026-05-06 08:07 56.91230 8.32576 37006 ft 456 kts 134°
2026-05-06 08:08 56.87259 8.41615 37015 ft 455 kts 134°
2026-05-06 08:08 56.83289 8.50609 37006 ft 455 kts 134°
2026-05-06 08:09 56.79317 8.59576 36986 ft 454 kts 134°
2026-05-06 08:09 56.75351 8.68504 36984 ft 453 kts 134°
2026-05-06 08:10 56.71382 8.77393 36971 ft 452 kts 134°
2026-05-06 08:10 56.67406 8.86257 36990 ft 452 kts 135°
2026-05-06 08:11 56.63434 8.95082 36977 ft 451 kts 135°
2026-05-06 08:11 56.59452 9.03886 36973 ft 451 kts 135°
2026-05-06 08:12 56.55481 9.12672 36964 ft 450 kts 135°
2026-05-06 08:12 56.51506 9.21432 36964 ft 450 kts 135°
2026-05-06 08:13 56.47519 9.30156 36851 ft 449 kts 135°
2026-05-06 08:13 56.45531 9.34499 36579 ft 447 kts 135°
2026-05-06 08:13 56.43551 9.38814 36321 ft 445 kts 135°
2026-05-06 08:14 56.41575 9.43111 36065 ft 445 kts 136°
2026-05-06 08:14 56.39598 9.47403 35813 ft 444 kts 136°
2026-05-06 08:14 56.37625 9.51689 35561 ft 443 kts 136°
2026-05-06 08:14 56.35683 9.55906 35313 ft 443 kts 136°
2026-05-06 08:15 56.33719 9.60162 35059 ft 441 kts 136°
2026-05-06 08:15 56.31757 9.64402 34812 ft 438 kts 136°
2026-05-06 08:15 56.29810 9.68592 34555 ft 434 kts 137°
2026-05-06 08:15 56.27878 9.72738 34081 ft 431 kts 137°
2026-05-06 08:16 56.25954 9.76862 33545 ft 429 kts 137°
2026-05-06 08:16 56.24047 9.80953 33064 ft 424 kts 137°
2026-05-06 08:16 56.22162 9.84993 32574 ft 420 kts 138°
2026-05-06 08:16 56.20290 9.88997 32085 ft 417 kts 138°
2026-05-06 08:17 56.18430 9.92971 31608 ft 414 kts 138°
2026-05-06 08:17 56.16582 9.96905 31117 ft 411 kts 137°
2026-05-06 08:17 56.14747 10.00809 30665 ft 407 kts 137°
2026-05-06 08:17 56.12925 10.04674 30201 ft 405 kts 137°
2026-05-06 08:18 56.11108 10.08515 29694 ft 402 kts 137°
2026-05-06 08:18 56.09307 10.12318 29258 ft 398 kts 137°
2026-05-06 08:18 56.07527 10.16080 28816 ft 395 kts 137°
2026-05-06 08:18 56.06926 10.17350 28672 ft 394 kts 137°